Location: Lecco
(45.8566°N, 9.3977°E)
Time: 23:47:37
(UTC+02:00)

S-56A Canister/Altair - Pass Details

Date: 29 July 2019
Orbit: 633 x 2499 km, 38.9° (Epoch: 23 August)

Event Time Altitude Azimuth Distance (km) Brightness Sun altitude
Rises 09:33:56 0° 272° (W) 5,046 11.2 35.0°
Reaches altitude 10° 09:36:57 10° 269° (W) 4,272 10.9 35.5°
Maximum altitude 09:48:49 58° 195° (SSW) 2,615 10.7 37.5°
Drops below altitude 10° 10:03:24 10° 122° (ESE) 5,155 12.8 40.0°
Sets 10:07:28 0° 119° (ESE) 6,121 13.0 40.7°
